GSAT0204 (GALILEO 8)

Last updated on Feb. 23, 2020, 4:52 a.m. UTC

1 40545U 15017B   20052.95689840 -.00000058  00000-0  00000-0 0  9994
2 40545  56.3541  44.6515 0003094 259.1671 100.8073  1.70475334 30530
UTC
Height (km)
Latitude
Longitude
Inclination
Orbital Period
UTC large
Height (km)
Speed (km/s)
/
Latitude / Longitude
Inclination (degrees)
Orbital Period (minutes)
Azimuth
Elevation
Range (km)
Doppler Factor
iOS Compass Heading
iOS Angle

Next 30 passes for location: Hong Kong

Rise time Rise Azimuth (degrees) Set time Set Azimuth (degrees) Duration Max altitude (degrees)

No matching passes for this satellites